User: anonymous   Login
Location: Unspecified
(0.0000°N, 0.0000°E)
Time: 03:21:09
(UTC+01:00)
Language:

Meteor PRIRODA - Orbit

View from above orbital plane
View from above orbital plane
View from above satellite
View from above satellite

Ground track
Ground track

The orbit data is extracted from the following two-line orbital elements,

1 12585U 81065A   14331.88604604  .00006394  00000-0  33931-3 0  9601
2 12585 097.3320 317.3290 0018315 060.1110 357.9789 15.15528781820774
Epoch (UTC): 27 November 2014 21:15:54
Eccentricity: 0.0018315
inclination: 97.3320°
perigee height: 507 km
apogee height: 532 km
right ascension of ascending node: 317.3290°
argument of perigee: 60.1110°
revolutions per day: 15.15528781
mean anomaly at epoch: 357.9789°
orbit number at epoch: 82077

The dashed part of the orbit path shows where the satellite is in the earth's shadow,  

DLR